Temp
14 14 15 15 15 14 13 12 12 13 14 14 14 15 15 15 15 15 17 17 17 17 17 16 16 15 15 14 14 14 13 13 13 13 13 13 13 13 13 13 12 12 12
11 11 12 12 12 11 11 11 11 11 13 13 14 14 14 15 16 16 17 16 16 16 16 16 16 15 15 15 14 14 13 13 13 13 13 13 13 13 13 13 12 12 12
7 8 8 9 9 8 10 11 12 11 10 13 13 14 14 14 15 15 16 16 17 16 16 16 16 16 15 15 14 14 13 13 13 13 13 13 13 13 13 13 12 12 12
5 5 6 7 8 8 8 9 9 9 9 10 11 13 13 14 14 14 15 16 16 16 16 16 16 16 15 15 15 14 14 13 13 13 13 13 13 13 13 13 12 12 12
1 1 0 1 4 6 6 6 7 7 7 9 9 10 13 13 14 14 15 15 15 16 16 16 16 16 15 15 15 14 14 14 13 13 13 13 13 13 13 13 13 12 12
-0 -1 -1 -1 -0 -0 1 2 3 5 5 7 8 9 10 12 13 14 14 14 15 15 15 16 16 16 16 15 15 14 14 14 14 13 13 13 13 13 13 12 12 12 12
-2 -2 -2 -2 -1 -1 -0 0 1 2 4 6 7 8 9 11 13 14 13 14 14 15 15 16 16 15 16 15 15 15 14 14 14 14 13 13 13 12 12 12 12 12 12
-3 -3 -3 -3 -2 -2 -1 -1 0 1 2 4 4 6 8 10 11 13 14 14 13 14 15 15 15 15 15 15 15 15 14 14 14 14 13 13 13 12 12 12 12 12 11
-4 -4 -4 -3 -2 -1 -1 -0 -0 0 1 2 4 4 8 10 11 12 14 14 14 15 14 13 15 15 15 15 15 15 15 14 14 14 14 13 13 13 12 12 12 12 11
-5 -5 -5 -3 -2 -2 -1 -1 -0 0 0 1 3 4 5 6 7 11 13 14 14 13 13 14 13 15 14 15 15 15 15 14 14 14 14 14 13 13 12 12 12 12 12
-6 -5 -5 -4 -3 -2 -1 -1 0 1 1 1 2 3 5 6 7 8 9 11 12 13 13 13 13 13 13 14 14 15 15 14 15 14 14 14 13 13 13 12 12 12 12
-5 -6 -6 -5 -4 -3 -2 -1 -1 -0 1 1 2 2 3 4 6 8 9 10 10 12 12 12 14 15 13 14 15 14 15 15 15 14 14 14 13 13 13 13 12 12 12
-5 -5 -6 -5 -5 -4 -3 -2 -1 -1 0 0 1 2 3 4 5 6 7 9 10 11 12 12 12 13 13 13 13 14 14 14 15 14 14 14 14 13 13 13 13 12 12
-7 -5 -5 -6 -5 -5 -4 -3 -2 -1 -0 0 1 2 2 4 5 6 6 7 9 10 11 11 12 12 11 12 12 12 13 13 13 14 14 14 14 14 13 13 12 12 12
-6 -5 -4 -5 -5 -5 -5 -5 -4 -3 -2 -1 1 2 3 5 5 5 6 7 8 9 10 11 11 11 12 12 12 12 12 13 13 13 13 13 13 13 13 13 12 12 12
-3 -3 -5 -5 -5 -5 -5 -5 -5 -5 -4 -3 -1 0 1 4 5 6 6 7 7 8 9 9 10 9 11 11 10 10 12 12 13 13 13 13 13 12 12 12 11 11 11
-3 -3 -4 -5 -5 -6 -5 -5 -5 -5 -5 -5 -4 -3 -1 1 4 4 6 6 7 8 8 8 6 8 8 8 8 8 10 10 11 12 12 12 13 12 12 12 12 11 11
-4 -5 -4 -4 -5 -4 -5 -5 -6 -6 -5 -6 -6 -5 -4 -2 1 2 5 4 6 7 7 5 3 4 5 7 3 5 7 8 9 10 11 11 11 11 11 11 11 11 11
-4 -5 -5 -4 -5 -6 -5 -5 -4 -6 -5 -6 -6 -7 -7 -4 -3 -0 1 1 5 4 5 3 0 0 1 1 1 -0 1 4 6 2 4 5 2 8 9 10 10 11 11
-6 -5 -5 -5 -5 -6 -6 -5 -5 -5 -4 -5 -7 -7 -9 -8 -6 -3 -2 -2 -1 -1 -0 0 -1 -2 -2 -2 1 0 -0 -0 0 0 -0 2 1 2 2 4 4 5 7
-8 -7 -5 -5 -5 -7 -8 -6 -5 -4 -4 -6 -5 -4 -6 -10 -6 -4 -3 -2 -2 -1 -2 -1 -1 -2 -3 -2 -2 -2 -2 -1 -0 0 -0 0 1 -1 -1 -1 1 1 1
-7 -6 -5 -5 -5 -5 -9 -7 -6 -6 -5 -6 -6 -5 -5 -7 -6 -5 -6 -5 -4 -5 -5 -5 -6 -6 -6 -6 -4 -2 -3 -3 -2 -2 -1 -0 -0 0 -0 1 -1 2 -0
-7 -7 -6 -6 -5 -6 -6 -9 -7 -7 -7 -6 -6 -6 -6 -5 -5 -6 -6 -5 -6 -7 -6 -6 -5 -7 -6 -6 -6 -6 -5 -6 -7 -6 -3 -1 -1 -1 -1 -4 -1 0 -1
-7 -7 -7 -7 -7 -7 -7 -9 -9 -8 -7 -7 -7 -7 -7 -6 -6 -6 -5 -5 -5 -6 -6 -6 -6 -7 -7 -7 -6 -5 -7 -8 -7 -5 -5 -6 -4 -3 -5 -5 -5 -4 -4
-7 -7 -7 -8 -8 -7 -7 -7 -7 -8 -8 -8 -7 -7 -7 -7 -7 -7 -6 -7 -7 -8 -8 -7 -8 -7 -7 -6 -7 -6 -6 -6 -8 -8 -6 -7 -7 -5 -6 -7 -6 -4 -3
-8 -8 -8 -8 -8 -8 -8 -7 -7 -8 -8 -9 -9 -9 -11 -9 -8 -7 -7 -7 -7 -9 -8 -8 -7 -7 -7 -8 -8 -8 -9 -10 -9 -9 -10 -9 -9 -9 -8 -8 -6 -6 -5
Height
1499 1497 1496 1495 1494 1492 1492 1492 1493 1491 1492 1493 1493 1493 1495 1496 1497 1497 1500 1500 1500 1501 1502 1504 1506 1508 1511 1513 1515 1518 1520 1523 1526 1527 1530 1533 1537 1540 1542 1544 1546 1549 1551
1493 1491 1489 1488 1487 1487 1486 1484 1484 1484 1483 1485 1486 1486 1487 1490 1490 1492 1493 1493 1495 1496 1497 1498 1501 1503 1505 1507 1510 1513 1516 1519 1522 1525 1526 1530 1533 1536 1539 1542 1544 1546 1549
1489 1486 1484 1482 1481 1478 1476 1477 1477 1477 1477 1476 1478 1479 1480 1482 1484 1485 1486 1486 1487 1489 1491 1492 1494 1497 1499 1502 1505 1507 1511 1515 1518 1521 1523 1525 1528 1532 1535 1538 1541 1544 1547
1485 1481 1478 1476 1474 1472 1471 1471 1471 1470 1470 1470 1468 1470 1471 1473 1475 1477 1480 1479 1479 1482 1484 1486 1488 1491 1494 1496 1500 1502 1505 1509 1513 1515 1519 1522 1524 1527 1530 1534 1537 1541 1543
1480 1476 1473 1470 1468 1466 1465 1464 1464 1465 1464 1462 1462 1461 1461 1462 1464 1467 1469 1473 1472 1472 1475 1477 1480 1482 1486 1490 1494 1497 1499 1503 1506 1510 1513 1517 1520 1523 1525 1528 1532 1536 1539
1475 1470 1467 1465 1463 1461 1460 1459 1457 1456 1455 1455 1454 1452 1452 1452 1453 1456 1459 1462 1464 1465 1465 1467 1471 1473 1476 1481 1486 1491 1494 1497 1500 1504 1508 1511 1516 1518 1522 1524 1527 1531 1534
1471 1467 1463 1461 1459 1457 1455 1454 1453 1450 1449 1451 1449 1446 1443 1443 1442 1445 1449 1451 1454 1457 1455 1456 1461 1464 1466 1470 1476 1482 1487 1490 1493 1496 1501 1505 1509 1514 1517 1520 1523 1526 1529
1467 1464 1459 1456 1454 1451 1450 1449 1448 1446 1445 1446 1446 1443 1437 1435 1433 1435 1438 1441 1445 1444 1445 1446 1449 1455 1459 1461 1465 1471 1477 1483 1486 1489 1493 1498 1503 1507 1511 1514 1517 1520 1523
1463 1460 1456 1452 1449 1446 1444 1443 1442 1443 1440 1440 1443 1443 1439 1432 1430 1428 1429 1430 1433 1433 1435 1427 1439 1443 1455 1456 1456 1462 1467 1474 1480 1483 1486 1490 1495 1500 1505 1509 1512 1514 1518
1461 1457 1453 1447 1445 1441 1439 1438 1437 1437 1436 1434 1434 1434 1436 1435 1431 1424 1423 1423 1423 1421 1429 1430 1421 1433 1447 1450 1449 1451 1457 1463 1471 1476 1480 1482 1487 1492 1498 1502 1506 1508 1511
1460 1456 1450 1445 1440 1437 1435 1433 1432 1431 1430 1428 1428 1428 1428 1427 1427 1427 1421 1419 1418 1415 1419 1422 1412 1438 1441 1444 1440 1442 1448 1454 1461 1468 1472 1476 1479 1484 1489 1494 1499 1503 1506
1458 1454 1447 1442 1437 1434 1431 1428 1427 1425 1424 1422 1422 1422 1422 1422 1421 1422 1419 1415 1413 1411 1414 1419 1423 1424 1430 1437 1434 1435 1440 1446 1451 1457 1464 1468 1472 1477 1482 1486 1491 1495 1499
1458 1452 1446 1440 1435 1432 1428 1425 1422 1419 1417 1416 1415 1415 1415 1414 1416 1416 1414 1411 1409 1409 1410 1412 1415 1420 1425 1425 1429 1431 1434 1438 1443 1448 1454 1460 1465 1470 1475 1480 1484 1489 1492
1460 1455 1449 1442 1436 1430 1426 1423 1420 1416 1413 1410 1408 1406 1406 1407 1408 1409 1408 1409 1405 1404 1406 1407 1407 1410 1410 1415 1420 1422 1427 1431 1436 1441 1446 1452 1457 1463 1468 1472 1477 1481 1485
1462 1458 1452 1444 1438 1433 1428 1422 1417 1414 1410 1406 1404 1402 1401 1400 1399 1400 1401 1403 1403 1401 1400 1403 1401 1402 1402 1406 1410 1415 1417 1420 1426 1432 1437 1442 1449 1455 1460 1464 1468 1472 1476
1465 1459 1454 1449 1443 1438 1432 1425 1420 1414 1410 1405 1401 1398 1396 1394 1392 1394 1395 1397 1397 1397 1397 1396 1394 1395 1397 1400 1404 1409 1411 1414 1418 1422 1427 1433 1439 1445 1449 1453 1457 1461 1464
1467 1463 1458 1452 1448 1442 1436 1429 1424 1417 1412 1407 1401 1396 1394 1390 1389 1387 1387 1389 1391 1392 1388 1388 1387 1389 1393 1398 1400 1407 1406 1407 1407 1413 1418 1424 1430 1434 1438 1442 1447 1451 1455
1471 1468 1462 1456 1451 1447 1441 1435 1429 1423 1417 1411 1406 1400 1396 1392 1386 1387 1384 1383 1384 1387 1386 1385 1386 1386 1393 1389 1401 1401 1402 1402 1399 1406 1411 1416 1420 1426 1429 1433 1437 1441 1444
1476 1473 1467 1461 1455 1451 1446 1440 1434 1430 1422 1418 1412 1409 1403 1396 1390 1387 1384 1381 1379 1383 1381 1380 1383 1391 1395 1399 1401 1403 1404 1395 1399 1402 1403 1406 1417 1412 1418 1424 1427 1430 1433
1478 1476 1471 1466 1460 1456 1451 1446 1441 1435 1430 1425 1421 1414 1411 1406 1399 1392 1388 1388 1388 1386 1388 1390 1390 1394 1405 1405 1397 1403 1413 1403 1398 1405 1406 1399 1409 1409 1414 1416 1420 1422 1424
1483 1480 1475 1471 1464 1459 1456 1452 1447 1442 1436 1435 1428 1423 1419 1418 1410 1403 1399 1395 1396 1395 1398 1395 1395 1403 1404 1393 1396 1404 1409 1408 1396 1399 1407 1409 1412 1414 1413 1417 1415 1418 1421
1485 1482 1478 1474 1469 1463 1461 1458 1455 1449 1446 1441 1434 1431 1428 1422 1419 1415 1412 1412 1407 1409 1407 1403 1401 1406 1408 1405 1403 1405 1409 1410 1407 1407 1407 1409 1412 1414 1418 1410 1418 1413 1423
1487 1484 1481 1477 1473 1470 1465 1464 1460 1456 1452 1447 1442 1437 1433 1429 1425 1424 1421 1418 1419 1417 1412 1411 1408 1411 1411 1414 1413 1412 1409 1414 1410 1409 1407 1406 1409 1412 1412 1418 1414 1413 1418
1489 1487 1484 1481 1479 1475 1472 1468 1465 1461 1457 1453 1449 1444 1441 1437 1433 1430 1427 1423 1421 1418 1414 1414 1415 1418 1420 1419 1416 1414 1416 1416 1417 1412 1411 1415 1415 1414 1416 1413 1411 1413 1416
1493 1491 1488 1485 1482 1479 1476 1472 1468 1464 1461 1458 1454 1450 1448 1443 1440 1437 1433 1430 1428 1425 1424 1424 1425 1425 1424 1421 1422 1421 1420 1421 1418 1416 1419 1419 1417 1415 1415 1415 1414 1412 1413
1495 1494 1492 1490 1487 1483 1480 1476 1472 1468 1465 1462 1460 1456 1453 1449 1446 1442 1439 1436 1432 1432 1431 1430 1429 1427 1426 1426 1425 1425 1427 1424 1420 1418 1422 1420 1417 1415 1413 1412 1412 1411 1413
Wind_Speed
24 24 25 25 25 25 23 22 24 29 29 32 32 32 32 32 27 25 19 23 27 28 28 26 27 23 23 24 24 22 21 20 17 16 19 19 20 21 19 18 18 18 19
25 26 26 24 24 24 24 27 27 29 34 32 33 34 34 35 35 30 32 29 25 25 28 25 28 25 25 26 25 24 23 23 20 19 20 23 20 20 20 20 20 20 21
24 27 28 27 23 24 28 30 32 29 28 35 37 36 36 35 38 36 32 33 32 27 28 27 28 28 27 26 27 26 25 25 24 22 24 23 22 22 23 24 22 22 20
26 27 28 29 29 30 31 29 29 29 31 25 34 42 39 39 39 41 40 33 36 35 30 29 27 30 29 28 28 27 27 27 27 25 26 27 25 25 25 25 25 24 22
22 25 27 30 29 28 27 27 26 23 25 31 26 32 45 38 42 41 44 41 37 37 37 33 30 30 32 31 28 28 28 29 29 28 28 29 28 28 28 29 28 27 24
23 28 30 24 23 24 23 25 25 27 28 26 28 32 32 47 47 38 40 45 43 39 39 38 33 31 33 34 32 29 29 31 31 31 30 30 31 30 29 29 30 30 27
24 25 25 24 23 24 25 25 26 27 33 25 25 26 37 40 52 55 40 43 45 46 46 45 39 34 31 32 35 32 31 31 32 32 32 31 31 32 30 29 30 31 30
20 24 26 26 24 24 24 24 24 27 27 29 28 25 23 28 31 48 56 45 48 43 51 46 47 39 34 33 35 36 34 33 32 33 34 33 31 33 33 30 29 30 31
22 22 24 23 24 23 23 22 23 26 29 24 27 23 10 14 18 24 41 48 52 50 50 39 49 44 40 35 31 33 36 37 33 33 34 35 34 33 35 34 31 30 31
22 21 23 24 24 23 20 20 20 22 23 29 24 26 34 31 20 13 24 36 35 39 48 39 27 38 39 39 36 36 36 39 36 33 34 34 35 35 35 36 35 31 30
23 23 24 24 22 20 21 21 22 22 24 24 28 28 30 34 29 31 30 25 24 31 38 42 49 40 37 40 36 36 34 37 38 37 35 34 33 33 34 35 36 34 32
27 26 26 24 22 21 19 19 19 19 21 24 27 27 33 32 27 24 30 33 40 29 29 34 46 43 41 41 39 38 41 37 38 38 39 37 33 32 33 32 33 33 32
31 31 28 27 24 21 18 18 18 18 19 19 22 27 31 34 37 37 31 31 29 39 32 25 36 45 49 39 36 38 40 41 40 39 37 40 37 35 32 31 31 31 32
28 29 27 26 24 22 20 17 17 18 18 20 22 26 25 30 32 33 37 30 30 30 32 28 23 35 32 37 42 42 40 42 42 42 40 38 39 39 36 34 33 31 31
25 28 29 27 25 23 21 19 17 16 16 14 14 17 20 25 33 36 34 30 28 29 29 24 26 23 33 40 39 38 44 45 41 40 42 42 39 40 41 39 37 35 35
24 25 27 27 27 26 25 24 22 19 17 13 9 8 8 12 21 28 29 31 28 27 32 23 24 23 27 27 24 35 47 43 43 43 42 43 40 40 42 45 46 44 44
25 24 23 24 27 28 28 28 28 27 26 24 19 15 9 4 5 6 15 28 29 22 15 22 15 17 16 20 15 19 24 28 38 37 39 42 44 45 44 45 45 46 46
28 26 24 25 26 26 27 29 29 30 31 33 35 31 27 18 13 2 7 2 7 20 15 17 12 10 10 13 15 18 24 30 24 27 36 39 43 41 40 41 43 44 43
25 27 24 26 30 30 29 29 28 29 31 33 35 38 37 34 29 21 19 16 3 3 7 15 21 18 16 14 13 15 19 21 26 28 23 20 18 27 31 36 40 43 44
24 25 25 25 29 32 32 31 30 30 30 31 32 36 40 38 35 33 33 33 27 26 24 23 25 25 20 21 20 17 15 22 26 18 13 16 12 16 14 16 18 21 26
18 20 23 22 25 31 32 32 32 32 32 30 31 33 36 36 36 34 30 30 29 28 27 28 28 22 22 25 24 18 12 9 17 16 11 7 6 8 11 9 5 3 4
15 17 22 24 23 26 28 29 30 32 31 33 34 32 31 34 34 35 37 34 30 29 31 30 30 26 21 22 17 14 13 6 5 11 10 8 4 3 5 11 6 7 9
16 18 20 23 24 22 23 24 25 28 31 31 33 33 32 30 31 30 31 32 34 34 34 30 31 29 25 20 16 15 14 12 15 12 3 5 4 5 4 5 7 8 13
17 19 22 23 25 24 19 20 21 22 26 29 29 31 30 30 29 28 28 28 29 31 32 30 28 25 23 20 19 17 13 10 9 12 15 9 10 7 5 4 5 7 8
15 17 21 24 25 25 25 22 19 21 23 25 27 27 28 28 26 26 25 27 27 28 26 23 21 19 18 18 18 13 16 12 10 12 16 13 17 13 5 2 2 10 11
12 15 18 19 21 22 23 24 23 22 24 24 24 26 27 27 24 24 25 25 25 26 22 20 20 19 19 18 18 17 16 18 15 8 19 17 20 21 8 3 15 16 13
Wind_Direction
296 294 290 286 282 279 278 276 280 264 262 258 257 256 244 229 238 244 243 249 251 248 254 260 248 240 234 227 222 220 216 215 217 220 207 190 197 209 222 216 210 212 210
306 301 294 290 285 281 275 266 259 265 261 257 258 254 251 241 231 234 235 244 254 248 249 256 248 239 233 228 224 222 218 215 215 217 211 210 210 213 215 211 208 210 210
302 298 301 297 285 272 267 263 262 260 277 268 254 258 253 246 240 237 236 237 244 252 251 256 250 239 232 228 226 223 222 219 216 215 212 210 214 211 209 210 212 209 210
301 300 292 287 285 280 276 273 264 263 261 271 275 251 255 251 246 241 237 231 237 243 246 249 250 240 233 230 226 226 223 222 220 219 215 215 215 215 211 212 211 214 219
316 306 302 298 297 291 286 281 270 265 279 264 272 277 251 253 251 246 240 235 231 238 239 243 245 240 233 229 228 227 225 223 222 222 220 219 218 217 214 214 214 218 224
305 308 313 317 313 303 301 290 276 255 255 263 271 266 272 251 248 251 244 237 235 233 235 234 236 235 231 229 227 226 227 224 223 224 222 222 221 218 218 218 219 224 227
305 315 314 310 305 305 291 289 291 289 262 256 271 277 273 268 251 248 252 244 238 232 232 236 231 229 222 226 229 227 227 226 223 224 224 223 224 222 220 221 223 226 228
319 318 313 314 313 304 296 290 283 287 289 261 270 281 285 274 271 248 245 247 244 239 237 226 230 227 224 218 222 226 227 226 226 224 224 223 226 225 224 224 225 226 227
321 320 320 319 316 312 305 299 291 279 279 284 254 260 287 262 287 257 249 252 248 247 239 229 227 220 231 229 222 225 229 227 228 226 223 224 225 226 227 227 228 227 228
342 337 330 324 319 317 310 302 292 279 278 272 268 252 257 269 286 308 253 254 258 258 247 248 235 215 226 232 231 230 230 226 228 229 227 224 226 228 228 229 230 230 229
353 348 335 336 329 321 312 304 293 281 270 273 270 263 258 260 266 265 279 270 264 261 253 244 237 240 235 233 232 235 227 224 228 232 230 226 225 227 228 229 232 233 234
2 355 350 346 341 332 325 315 305 296 285 271 265 264 259 258 257 265 267 268 263 273 269 241 226 240 231 234 238 235 239 230 225 226 230 228 225 226 227 228 230 232 234
12 3 358 355 351 343 332 321 315 294 281 274 268 264 257 258 258 260 269 276 268 258 262 262 243 233 232 238 238 237 240 242 232 225 226 231 228 227 226 228 228 233 234
13 8 7 7 4 0 351 339 330 319 305 285 268 258 265 258 257 257 260 271 275 266 250 248 242 234 239 238 239 240 242 240 240 237 231 226 228 230 231 232 234 236 239
22 20 17 22 20 16 18 15 8 353 340 320 290 279 264 259 248 254 256 256 260 266 252 241 232 232 234 237 240 244 241 236 233 232 230 227 230 231 232 233 235 238 242
23 26 29 26 35 31 37 33 31 30 25 15 353 314 278 252 243 246 257 250 251 260 256 232 225 228 239 250 252 242 243 245 242 229 227 227 226 225 230 233 234 235 237
28 25 29 34 32 38 37 45 44 43 44 43 42 38 29 43 262 213 243 241 251 275 250 217 179 197 213 217 228 203 227 235 236 231 230 227 226 226 228 229 232 236 238
29 28 31 38 40 35 39 40 44 48 49 50 49 52 50 58 66 115 235 146 246 237 230 150 136 141 182 209 173 178 185 199 193 218 224 219 226 230 229 231 233 235 236
32 29 34 44 47 40 39 42 41 42 48 50 51 46 45 56 65 71 74 71 220 118 151 138 101 104 112 128 134 107 116 143 167 141 151 160 145 193 215 228 228 231 232
25 27 32 41 51 47 45 45 48 48 46 49 53 52 43 41 49 68 76 75 81 98 112 121 110 94 99 107 114 96 82 113 124 131 112 137 120 126 123 160 179 189 204
34 29 33 38 50 52 40 45 46 48 53 51 53 57 56 40 50 55 59 71 81 83 84 87 91 87 66 66 81 93 102 90 92 112 110 99 29 41 42 53 109 42 318
44 41 39 39 43 54 45 41 44 47 48 50 52 52 54 56 50 57 64 69 69 75 77 73 73 68 59 60 57 55 54 31 73 81 90 85 84 44 358 359 336 314 304
45 48 50 46 42 44 55 37 39 44 45 46 49 49 48 48 53 53 58 63 66 64 66 66 64 58 58 56 57 67 76 41 46 31 55 43 2 339 338 291 304 309 314
50 48 46 49 49 45 38 53 36 40 43 45 46 47 46 47 46 47 50 53 56 57 55 56 56 54 50 49 52 52 60 61 29 42 38 41 33 56 158 258 302 296 297
50 51 48 43 39 41 43 41 45 44 43 42 42 46 44 46 46 46 49 53 51 52 50 52 54 53 49 49 47 53 48 50 51 23 17 20 13 19 102 216 16 349 341
55 46 42 40 37 37 36 38 39 43 41 39 39 40 41 41 42 44 43 45 46 42 41 43 44 44 41 43 41 42 39 37 44 47 3 13 9 11 9 359 344 351 341